A-11 Canister half - Orbit

View from above orbital plane
View from above orbital plane
View from above satellite
View from above satellite

Ground track
Ground track

The orbit data is extracted from the following two-line orbital elements,

1 00053U 60009E   13168.14545262 -.00000086  00000-0  00000+0 0  3775
2 00053 047.2728 224.5341 0096597 085.9360 314.4791 12.17113399357098
Epoch (UTC): 17 June 2013 03:29:27
Eccentricity: 0.0096597
inclination: 47.2728°
perigee height: 1528 km
apogee height: 1682 km
right ascension of ascending node: 224.5341°
argument of perigee: 85.9360°
revolutions per day: 12.17113399
mean anomaly at epoch: 314.4791°
orbit number at epoch: 35709

The dashed part of the orbit path shows where the satellite is in the earth's shadow,  

Developed and maintained by Chris Peat, Heavens-Above GmbH. Please read the updated FAQ before sending e-mail. Imprint. DLR